Helicity
21 25 53 3 69 111 189 300 336 318 272 384 348 280 260 235 237 297 350 341 284 223 198 172 175 149 179 197 162 159 167 189 179 176 253 261 259 224 202 248 192 261 232 198
25 30 21 19 13 58 136 220 289 250 336 295 284 267 198 175 180 231 245 249 277 254 228 220 170 160 231 289 239 204 182 197 186 158 206 253 278 282 284 286 280 206 198 248
19 36 20 18 9 8 86 173 339 347 214 408 303 268 274 204 354 215 260 278 259 272 238 235 241 191 256 285 311 314 251 229 221 177 216 244 210 203 175 145 183 142 183 118
13 28 18 30 19 31 103 150 240 287 328 372 273 339 380 434 344 426 370 289 270 255 228 168 200 213 223 252 305 281 306 261 204 189 197 221 231 225 217 244 205 245 167 179
-27 29 36 21 27 52 89 166 189 208 198 168 113 132 207 301 417 461 502 441 454 398 383 388 293 309 336 314 315 331 365 256 253 193 183 148 140 179 205 251 243 245 193 196
-80 -28 24 39 26 105 95 93 123 160 169 182 184 194 214 227 221 252 278 311 435 495 511 439 406 404 406 386 356 349 341 321 268 208 229 289 223 214 208 308 422 399 336 446
-17 -40 -5 47 61 46 83 87 112 154 195 187 186 166 169 193 229 223 263 301 326 290 256 303 335 379 368 349 317 302 312 314 307 286 287 265 331 418 353 351 352 402 482 472
-2 -20 -13 18 53 86 96 91 122 133 170 140 117 97 140 153 171 215 239 199 156 101 158 263 285 290 263 242 187 162 175 265 310 316 280 320 254 261 215 243 256 270 329 275
5 43 45 -5 40 60 113 123 98 133 141 79 86 70 59 117 128 150 183 85 56 84 182 190 225 236 215 189 173 134 108 123 245 278 321 320 285 239 156 148 283 175 203 171
26 -0 28 113 34 37 98 112 99 149 172 129 92 90 32 75 101 135 119 72 64 60 138 185 180 189 192 207 201 200 201 190 205 215 268 247 205 213 115 277 293 129 84 44
14 -6 -16 1 76 50 151 152 69 111 167 132 102 93 95 93 68 84 83 99 73 66 79 100 113 134 112 142 118 127 106 131 141 143 183 218 128 82 111 73 54 36 12 7
42 -11 -18 -21 3 17 76 113 51 99 128 104 103 108 121 114 94 109 101 92 71 45 64 55 66 73 66 68 104 85 90 96 117 116 151 177 63 94 20 -17 6 12 21 51
44 43 6 -0 11 19 55 73 135 140 118 109 101 88 84 87 90 81 116 96 90 82 96 98 102 94 97 70 67 90 95 122 157 157 145 139 96 51 19 58 67 78 87 73
32 47 7 22 9 77 113 87 117 130 98 99 73 55 78 96 93 95 118 117 143 142 125 116 110 121 93 113 130 105 141 137 145 147 106 120 101 92 109 103 101 111 124 122
27 37 38 2 -0 27 64 107 114 90 78 65 96 105 112 109 91 78 82 99 126 128 113 109 135 173 176 160 147 120 182 126 123 99 50 89 115 92 122 94 110 131 129 130
36 38 33 14 58 90 75 94 66 96 109 110 104 63 73 84 80 87 84 110 143 126 114 117 111 147 137 127 148 105 44 61 58 81 124 114 118 119 156 138 129 119 107 100
26 29 50 87 71 71 100 97 64 62 78 112 124 99 99 100 118 142 149 143 152 154 155 164 175 154 141 174 201 92 121 125 132 145 106 86 148 148 156 137 118 101 96 83
121 153 100 110 111 84 105 122 101 93 90 96 131 132 108 103 129 147 128 141 124 147 180 184 184 171 178 166 94 142 186 144 133 144 152 151 143 136 143 128 122 111 131 112
19 -3 21 125 76 51 47 60 91 81 102 107 99 101 100 78 106 109 112 127 136 153 151 155 130 149 126 151 166 152 153 150 151 157 147 134 138 145 142 142 133 117 122 107
-36 -21 -28 -46 36 48 56 78 74 84 94 108 17 81 94 79 76 93 97 96 110 108 90 115 121 135 167 168 161 149 147 147 133 115 109 135 132 135 128 116 101 92 89 89
-24 -26 -32 -22 4 -14 1 -22 -12 7 6 15 95 102 106 72 84 75 74 100 109 120 131 151 156 159 166 149 148 132 124 110 99 87 86 82 75 82 91 91 84 75 71 71
25 32 36 45 46 55 39 44 45 35 27 36 31 51 67 70 88 92 80 123 134 135 189 186 182 186 173 154 124 90 67 60 65 73 69 73 71 77 81 84 85 76 71 71
65 47 58 49 48 46 23 32 30 29 22 31 31 39 41 55 61 94 101 122 135 160 180 222 237 199 176 163 153 122 102 80 66 73 74 80 75 70 65 81 74 63 65 74
50 62 62 41 41 18 34 44 51 67 56 58 55 65 58 69 84 100 128 137 146 182 228 224 212 179 162 157 154 147 153 131 105 107 105 96 74 79 92 84 72 75 89 76
93 104 71 68 77 79 80 83 85 87 85 87 82 74 77 91 115 130 165 170 198 218 210 186 167 158 154 143 132 112 91 104 98 94 105 109 104 112 112 115 106 99 103 102
125 163 139 119 107 103 108 110 113 111 96 104 114 116 110 129 163 195 221 232 225 216 177 155 138 131 122 112 104 95 89 85 85 89 77 71 83 86 77 83 88 96 87 80
142 148 162 160 138 123 136 146 150 148 143 141 147 154 158 179 177 207 211 203 194 157 116 102 90 73 71 76 70 66 72 72 77 79 85 86 90 104 97 84 84 85 79 95
Wind_Speed
52 45 46 44 34 33 45 44 55 35 36 60 69 86 76 65 67 57 60 59 62 66 59 62 64 64 57 47 44 54 52 61 75 69 58 56 57 63 56 73 76 75 83 91
54 51 43 39 38 39 46 50 45 39 42 69 78 71 79 77 72 66 66 68 62 57 66 73 67 61 51 50 52 52 47 65 81 76 67 61 67 66 65 69 73 89 91 78
50 52 48 42 36 34 37 52 57 54 48 53 72 80 81 83 70 74 69 65 63 64 73 67 71 65 57 54 55 56 56 70 78 93 79 61 66 65 63 65 81 88 90 97
48 46 41 40 39 33 36 47 55 53 68 69 63 61 65 78 80 68 67 77 79 78 84 80 83 72 65 59 60 57 61 87 83 88 82 79 85 82 74 78 83 89 104 99
42 47 48 36 32 28 37 43 46 43 46 44 55 58 57 58 56 58 70 73 69 71 80 77 77 73 73 74 64 68 66 88 80 97 87 86 98 90 87 89 92 99 106 104
47 43 43 44 19 21 34 32 30 38 44 45 50 53 53 53 44 43 40 34 42 49 50 49 47 49 51 54 61 66 70 77 83 109 79 82 104 91 85 81 76 80 93 79
49 46 41 43 42 24 28 31 28 35 44 40 42 36 36 41 43 44 38 36 40 35 28 33 38 44 47 49 50 49 59 61 62 80 71 100 71 56 55 55 56 54 59 65
44 44 42 42 46 27 26 22 29 34 38 29 28 29 31 30 31 33 33 33 28 25 32 43 50 53 54 52 47 48 47 55 68 78 81 72 64 56 55 60 60 49 63 66
39 36 41 47 42 32 30 26 23 26 30 40 28 27 28 35 36 35 31 27 28 32 39 45 60 68 59 60 53 44 43 50 59 63 80 89 59 46 45 44 72 45 60 68
27 33 39 36 40 39 30 30 25 26 31 29 25 33 31 28 31 36 30 31 34 36 44 52 55 60 49 63 61 56 54 54 64 70 75 66 42 44 43 76 69 56 65 66
32 32 34 35 33 30 29 26 22 20 28 26 27 26 26 25 28 35 27 33 39 39 49 52 52 54 52 55 52 54 56 59 65 61 74 88 33 43 59 55 59 63 65 66
38 39 35 33 33 31 27 30 25 22 22 27 27 27 25 29 27 28 27 36 32 31 41 44 45 53 49 54 65 45 65 56 63 60 62 38 31 44 49 53 60 67 69 68
38 35 31 33 31 34 29 29 22 23 26 29 30 33 32 31 32 32 34 37 33 35 36 38 45 57 46 61 65 61 53 47 60 57 50 47 46 50 50 57 67 66 67 72
36 33 27 26 23 21 23 25 26 23 29 35 33 30 32 35 35 31 32 32 31 33 38 47 51 57 43 58 58 62 57 48 54 59 57 55 57 53 58 63 66 70 71 73
34 32 30 21 16 12 15 17 25 21 29 32 32 29 33 34 31 29 30 29 31 35 42 45 49 45 46 52 57 69 54 57 62 68 61 55 59 56 59 67 67 67 72 74
32 27 26 16 4 8 22 28 27 27 27 29 34 29 30 30 28 28 29 30 35 37 41 46 46 46 47 59 67 60 48 45 49 50 44 50 58 58 59 62 63 64 68 68
29 20 11 9 10 16 26 30 24 18 23 28 33 36 33 31 31 34 35 31 38 40 44 49 51 52 48 59 68 51 47 47 47 48 55 61 56 57 60 60 60 61 59 60
26 22 23 14 13 19 23 25 20 19 24 31 35 37 34 31 33 38 34 35 33 37 42 43 46 43 42 53 49 49 51 54 54 55 56 56 55 54 58 57 56 58 57 57
21 16 20 21 24 25 24 22 25 25 29 33 35 41 42 31 33 31 29 30 34 35 36 34 28 35 40 45 48 48 51 51 56 59 55 51 49 50 52 53 54 56 58 58
35 32 32 35 33 21 26 31 34 37 41 37 49 41 29 31 25 29 27 32 29 24 28 24 22 34 38 45 47 48 51 51 52 51 49 51 51 53 55 56 56 57 59 60
32 31 32 34 33 33 33 37 39 41 43 44 36 17 21 21 22 22 24 27 28 36 33 28 35 42 42 40 40 40 42 44 46 46 47 48 51 56 59 61 60 60 62 63
24 26 26 25 33 33 33 34 33 26 29 24 22 23 22 20 23 24 22 32 29 41 30 36 45 44 43 42 43 43 45 47 51 51 54 55 56 57 59 61 63 64 66 68
29 31 29 28 29 26 25 22 25 25 22 22 23 23 23 23 21 25 25 28 31 32 36 46 48 45 44 45 46 48 49 52 55 58 59 60 61 61 62 67 67 68 70 71
32 31 32 28 25 26 24 26 26 26 25 23 25 25 25 25 22 25 29 31 32 39 44 49 46 44 46 47 51 55 60 60 62 64 65 66 66 70 72 71 70 73 77 76
37 36 37 33 31 31 28 25 25 27 26 27 28 29 29 28 31 29 32 35 38 41 47 43 41 47 51 55 59 62 64 67 70 70 71 72 74 76 78 74 73 75 78 80
37 38 39 36 35 34 32 31 29 32 29 29 33 33 35 33 34 35 36 41 44 43 41 42 50 57 60 64 65 66 66 66 67 67 69 70 71 71 72 72 72 73 72 73
40 43 40 41 41 39 36 35 34 37 34 36 34 36 38 35 39 40 38 43 41 41 47 54 57 63 64 64 65 64 65 66 67 68 67 65 64 64 69 74 73 63 61 61
Wind_Direction
280 283 269 258 264 252 246 246 244 247 242 243 250 250 254 263 261 266 269 270 269 268 271 271 271 273 279 286 281 276 277 284 280 283 291 289 285 285 282 283 288 287 290 289
274 273 273 269 263 259 252 247 251 259 247 244 250 258 258 260 261 261 265 266 267 270 270 271 272 275 283 285 279 279 279 279 280 283 288 289 284 282 282 285 286 280 284 290
280 271 263 264 264 263 261 251 251 252 257 264 260 257 260 258 264 261 264 268 270 269 268 270 274 275 283 283 281 284 281 277 276 277 288 293 288 285 283 279 280 285 279 287
276 274 277 269 261 264 264 261 257 260 255 259 263 265 266 258 261 264 265 265 264 266 267 267 267 272 277 283 286 284 280 276 279 282 285 286 284 284 284 279 280 281 287 288
275 273 271 278 274 264 268 258 260 265 262 264 262 264 268 267 266 269 266 264 267 264 265 270 272 271 273 275 284 279 283 279 283 281 284 285 284 284 283 282 283 283 285 287
265 271 271 268 282 279 271 274 274 267 265 264 262 267 266 268 273 285 283 274 274 273 272 280 285 286 283 283 282 282 283 281 281 280 287 287 284 285 283 287 289 288 286 293
258 266 273 264 268 273 284 271 268 269 262 267 264 267 272 272 277 274 281 285 281 287 297 296 294 291 289 287 286 289 287 287 287 285 288 282 292 304 298 291 297 302 301 303
265 267 263 263 260 254 277 278 274 268 260 265 265 268 273 278 284 282 282 289 295 294 295 288 285 286 287 288 290 286 287 289 287 285 284 290 291 298 297 295 294 305 306 310
274 278 277 261 259 260 258 271 287 284 262 263 269 266 269 272 274 278 286 296 300 298 292 287 279 279 284 285 290 297 290 288 287 289 287 286 295 301 306 306 292 309 313 312
298 290 274 279 258 254 254 262 277 284 274 271 269 270 266 282 281 280 284 287 292 297 288 284 283 282 290 284 286 289 290 289 285 288 289 293 295 307 309 293 297 309 313 313
293 292 276 269 269 256 253 262 264 275 282 272 279 287 279 280 281 278 286 291 291 289 284 285 286 286 288 290 292 291 288 289 289 292 290 289 294 303 301 306 310 311 311 310
295 273 275 274 267 263 259 257 260 279 287 284 291 292 294 294 291 293 289 297 298 298 292 291 294 290 293 290 289 297 290 291 294 293 297 310 305 309 309 310 310 310 310 311
299 284 276 275 270 265 264 259 258 271 283 290 287 281 290 297 297 298 290 291 298 299 305 300 298 290 296 289 290 293 300 302 296 299 298 296 305 308 310 311 311 312 312 312
298 288 283 283 278 283 268 268 266 281 288 280 288 298 296 301 298 295 298 303 306 307 302 297 295 291 299 295 298 296 301 302 300 296 298 299 302 306 311 312 313 313 314 315
299 285 276 281 295 311 304 296 281 286 283 290 287 299 307 311 309 302 296 295 297 299 296 297 293 298 300 301 302 298 298 296 295 296 299 298 304 310 313 312 313 315 315 316
309 296 279 284 338 334 285 282 289 286 295 294 289 311 309 317 314 309 304 298 296 295 298 297 298 301 299 298 298 305 303 303 305 303 309 309 311 312 315 314 317 319 318 318
317 323 352 42 330 322 290 288 290 297 298 297 297 298 310 314 314 308 306 310 303 300 296 294 297 299 298 297 294 306 309 308 308 311 310 308 313 312 316 318 319 320 321 322
19 31 41 25 357 323 314 324 332 318 306 300 296 299 306 317 311 304 311 305 305 306 301 305 301 304 301 299 302 304 305 305 306 310 313 314 316 319 319 319 319 319 323 325
19 5 2 328 316 314 313 323 322 325 308 300 301 294 299 316 313 316 316 317 309 314 308 309 314 307 301 305 307 310 310 312 312 314 316 319 320 321 321 321 321 320 321 322
147 189 190 187 239 312 303 300 286 281 275 289 249 274 308 303 319 312 320 311 321 338 327 339 327 314 315 316 317 318 318 320 321 319 318 319 319 320 320 319 319 318 319 319
176 196 199 167 208 202 229 222 227 237 240 251 287 337 329 338 334 336 334 331 332 319 323 321 320 315 320 329 330 331 331 329 328 327 325 324 321 319 318 317 318 317 316 315
9 24 15 351 284 289 284 286 288 323 313 348 357 345 337 340 335 333 340 323 328 317 333 320 315 320 325 328 328 329 330 328 326 325 323 322 320 319 318 317 315 314 313 312
331 324 335 336 329 334 337 345 339 343 1 5 8 8 2 353 346 341 339 332 324 334 322 317 319 326 328 329 329 329 330 328 325 323 322 321 318 317 316 313 312 311 310 310
314 317 315 328 335 334 338 333 339 339 343 352 352 352 353 350 347 340 335 331 332 322 318 318 326 331 331 331 330 328 326 325 324 322 320 318 316 314 313 312 310 309 308 308
305 306 305 308 316 320 326 338 340 338 337 338 339 338 339 337 331 334 332 329 324 326 324 329 333 333 332 329 327 326 325 323 320 319 317 315 314 313 311 312 311 309 308 306
304 304 304 311 309 309 314 318 321 326 328 331 329 327 327 322 326 323 320 320 319 324 328 331 330 328 328 327 326 325 324 323 323 322 320 318 317 316 316 315 314 313 313 311
303 302 306 303 306 307 309 312 314 318 317 314 320 316 315 328 322 320 324 320 326 329 328 328 329 327 328 328 327 327 327 326 325 324 323 323 323 322 319 316 318 322 321 319